W9WKM Weather Reports


Display with metric or nautical units.
time (UTC)temp
F
wind
direction
speed
MPH
gust
MPH
rain 1hr
in
rain 24hr
in
rain mn
in
humidity
%
barometer
mb
20210922084508 59 117 2.0 8.0 0.00 0.07 0.00 84 1016.6
20210922083249 60 44 0.0 7.0 0.00 0.07 0.00 83 1016.5
20210922081657 59 54 0.0 2.0 0.00 0.07 0.00 85 1016.5
20210922080110 59 39 0.0 2.0 0.00 0.07 0.00 86 1017.5
20210922074557 59 6 0.0 5.0 0.00 0.12 0.00 86 1017.3
20210922073109 59 4 0.0 2.0 0.00 0.12 0.00 87 1017.1
20210922071607 59 26 0.0 3.0 0.00 0.12 0.00 86 1017.1
20210922070028 60 40 1.0 6.0 0.00 0.12 0.00 83 1017.2
20210922064556 60 32 0.0 4.0 0.00 0.17 0.00 81 1017.5
20210922063205 60 21 0.0 4.0 0.00 0.17 0.00 80 1017.7
20210922061621 60 22 0.0 3.0 0.00 0.17 0.00 80 1017.4
20210922060045 60 18 0.0 4.0 0.00 0.17 0.00 80 1017.3
20210922054605 60 25 1.0 4.0 0.00 0.36 0.00 80 1017.5
20210922053021 60 44 0.0 4.0 0.00 0.36 0.00 80 1017.7
20210922051552 60 37 0.0 4.0 0.00 0.36 0.00 80 1017.8
20210922050014 60 58 0.0 4.0 0.00 0.36 0.00 81 1018.1
20210922044502 60 240 0.0 4.0 0.00 0.36 0.36 81 1018.4
20210922043128 60 45 0.0 2.0 0.00 0.36 0.36 82 1018.1
20210922041634 60 20 0.0 4.0 0.00 0.36 0.36 81 1018.2
20210922040116 60 57 0.0 2.0 0.00 0.36 0.36 81 1018.4
20210922034643 60 34 1.0 4.0 0.00 0.36 0.36 81 1018.3
20210922033048 60 40 0.0 2.0 0.00 0.36 0.36 81 1018.3
20210922031557 60 32 0.0 3.0 0.00 0.36 0.36 82 1018.5
20210922030027 60 24 0.0 0.0 0.00 0.36 0.36 82 1019.0
20210922024526 60 26 0.0 4.0 0.00 0.36 0.36 81 1018.4
20210922023016 60 39 0.0 5.0 0.00 0.36 0.36 81 1018.6
20210922021505 60 39 0.0 2.0 0.00 0.36 0.36 81 1018.6
20210922020136 60 39 0.0 3.0 0.00 0.36 0.36 81 1018.6
20210922014640 60 34 0.0 2.0 0.00 0.36 0.36 81 1018.7
20210922013107 60 15 0.0 2.0 0.00 0.36 0.36 80 1018.6
20210922011551 61 44 0.0 3.0 0.00 0.36 0.36 79 1018.3
20210922010052 61 46 0.0 3.0 0.00 0.36 0.36 78 1018.1
20210922004638 61 49 1.0 4.0 0.00 0.36 0.36 78 1018.0
20210922003037 61 46 0.0 3.0 0.00 0.36 0.36 79 1018.1
20210922001620 61 56 0.0 7.0 0.00 0.36 0.36 79 1017.9
20210922000025 61 35 0.0 10.0 0.00 0.36 0.36 79 1017.5
20210921234514 62 42 0.0 6.0 0.00 0.36 0.36 78 1017.8
20210921233024 62 23 0.0 5.0 0.00 0.36 0.36 77 1017.7
20210921231619 62 32 1.0 8.0 0.00 0.36 0.36 76 1017.7
20210921230048 62 65 2.0 7.0 0.00 0.36 0.36 76 1017.3
20210921224540 63 98 2.0 5.0 0.00 0.36 0.36 76 1017.3
20210921223022 63 83 0.0 4.0 0.00 0.36 0.36 75 1017.0
20210921221520 63 44 1.0 8.0 0.00 0.36 0.36 74 1016.7
20210921220005 64 7 1.0 10.0 0.00 0.36 0.36 73 1016.6
20210921213136 65 13 1.0 10.0 0.00 0.36 0.36 73 1016.6
20210921211606 65 17 3.0 7.0 0.00 0.36 0.36 73 1016.0
20210921210137 65 19 1.0 8.0 0.00 0.36 0.36 73 1016.1
20210921204635 66 56 1.0 6.0 0.00 0.36 0.36 73 1016.0
20210921203226 66 48 1.0 7.0 0.00 0.36 0.36 72 1016.1
20210921201515 65 6 1.0 6.0 0.00 0.36 0.36 73 1016.2
20210921200129 65 43 1.0 6.0 0.00 0.36 0.36 73 1016.3
20210921194636 66 73 0.0 4.0 0.00 0.37 0.36 74 1016.1
20210921193127 67 1 0.0 5.0 0.00 0.37 0.36 74 1016.0
20210921191532 67 27 1.0 6.0 0.00 0.37 0.36 76 1016.0
20210921190017 66 39 0.0 6.0 0.00 0.37 0.36 75 1015.9
20210921184705 66 18 0.0 6.0 0.00 0.37 0.36 78 1016.0
20210921183112 68 82 0.0 4.0 0.00 0.37 0.36 76 1015.8
20210921181641 68 221 1.0 5.0 0.00 0.37 0.36 76 1016.0
20210921180027 67 281 0.0 3.0 0.00 0.37 0.36 79 1016.0
20210921174706 67 54 1.0 4.0 0.00 0.46 0.36 81 1016.1
20210921173051 67 234 0.0 3.0 0.00 0.46 0.36 80 1015.9
20210921171603 66 44 0.0 2.0 0.00 0.46 0.36 83 1015.8
20210921170038 66 222 0.0 3.0 0.00 0.46 0.36 86 1016.0
20210921164538 65 228 0.0 3.0 0.00 0.46 0.36 91 1015.8
20210921163122 64 146 0.0 2.0 0.00 0.46 0.36 95 1015.6
20210921161521 64 45 0.0 3.0 0.00 0.46 0.36 96 1015.5
20210921160032 63 236 0.0 4.0 0.00 0.46 0.36 96 1015.4
20210921154513 63 37 0.0 1.0 0.00 0.51 0.36 96 1015.0
20210921153004 62 30 0.0 4.0 0.00 0.51 0.36 96 1014.8
20210921151657 63 8 0.0 3.0 0.00 0.51 0.36 96 1014.4
20210921150215 62 3 0.0 3.0 0.00 0.51 0.36 96 1014.5
20210921144636 62 330 0.0 5.0 0.00 0.51 0.36 96 1014.4
20210921143051 61 146 0.0 2.0 0.00 0.51 0.36 97 1014.0
20210921141527 61 33 0.0 2.0 0.01 0.51 0.36 96 1013.7
20210921140020 61 50 0.0 2.0 0.01 0.51 0.36 96 1013.6
20210921134521 61 30 0.0 6.0 0.02 0.62 0.36 96 1013.5
20210921133029 61 38 1.0 8.0 0.02 0.62 0.36 96 1013.5
20210921131642 63 233 0.0 1.0 0.01 0.61 0.35 97 1013.2
20210921130138 63 323 0.0 1.0 0.01 0.61 0.35 97 1013.0
20210921124623 63 311 0.0 1.0 0.00 0.62 0.34 96 1012.8
20210921123050 63 308 0.0 2.0 0.01 0.62 0.34 96 1012.3
20210921121542 63 225 0.0 2.0 0.01 0.62 0.34 96 1012.0
20210921120056 63 269 0.0 3.0 0.01 0.62 0.34 96 1011.3
20210921114530 64 289 0.0 3.0 0.01 0.62 0.34 96 1011.1
20210921113022 66 189 0.0 1.0 0.00 0.61 0.33 97 1010.5
20210921111622 66 219 0.0 2.0 0.00 0.61 0.33 96 1010.4
20210921110240 66 175 0.0 2.0 0.00 0.61 0.33 96 1010.4
20210921104735 66 170 0.0 2.0 0.00 0.62 0.33 96 1010.3
20210921103132 66 200 0.0 1.0 0.00 0.62 0.33 96 1010.3
20210921101552 66 191 0.0 3.0 0.00 0.62 0.33 96 1010.2
20210921100122 66 209 0.0 3.0 0.00 0.62 0.33 96 1009.9
20210921094546 66 207 0.0 2.0 0.00 0.62 0.33 96 1010.0
20210921093041 66 211 0.0 4.0 0.02 0.62 0.33 96 1009.7
20210921091553 66 227 0.0 3.0 0.03 0.62 0.33 96 1009.6
20210921090028 66 190 0.0 2.0 0.04 0.62 0.33 96 1009.6